This is the latest recevied weather packets stored in our database for station/object K4AMF. If no packets are shown the sender has not sent any weather packets the latest 10 day(s).
| Time | Temp. | Humidity | Pressure | Rain* | Wind** | Luminosity | Snow |
|---|---|---|---|---|---|---|---|
| 1777931443 | 25° C | 55% | 1016.8 hPa | 0 mm | - | 309 W/m² | - |
| 1777931139 | 25° C | 55% | 1016.5 hPa | 0 mm | - | 308 W/m² | - |
| 1777930836 | 25° C | 54% | 1016.5 hPa | 0 mm | - | 342 W/m² | - |
| 1777930532 | 24.44° C | 54% | 1016.7 hPa | 0 mm | - | 356 W/m² | - |
| 1777930230 | 24.44° C | 55% | 1016.6 hPa | 0 mm | - | 385 W/m² | - |
| 1777929925 | 25° C | 53% | 1016.9 hPa | 0 mm | - | 393 W/m² | - |
| 1777929623 | 25° C | 53% | 1016.6 hPa | 0 mm | - | 398 W/m² | - |
| 1777929320 | 25° C | 52% | 1016.9 hPa | 0 mm | - | 437 W/m² | - |
| 1777929017 | 25° C | 52% | 1016.9 hPa | 0 mm | - | 450 W/m² | - |
| 1777928714 | 25° C | 52% | 1017.1 hPa | 0 mm | - | 446 W/m² | - |
| 1777928410 | 25° C | 53% | 1016.8 hPa | 0 mm | - | 449 W/m² | - |
| 1777928108 | 25.56° C | 51% | 1017 hPa | 0 mm | - | 465 W/m² | - |
| 1777927806 | 25.56° C | 51% | 1017 hPa | 0 mm | - | 462 W/m² | - |
| 1777927504 | 25.56° C | 52% | 1016.9 hPa | 0 mm | - | 484 W/m² | - |
| 1777927203 | 26.11° C | 51% | 1016.8 hPa | 0 mm | - | 509 W/m² | - |
| 1777926900 | 25.56° C | 51% | 1017.1 hPa | 0 mm | - | 523 W/m² | - |
| 1777926596 | 25° C | 52% | 1017.1 hPa | 0 mm | - | 529 W/m² | - |
| 1777926293 | 25° C | 51% | 1017.1 hPa | 0 mm | - | 556 W/m² | - |
| 1777925990 | 25° C | 52% | 1017.2 hPa | 0 mm | - | 579 W/m² | - |
| 1777925687 | 25.56° C | 49% | 1016.9 hPa | 0 mm | - | 602 W/m² | - |
| 1777925384 | 25.56° C | 49% | 1017 hPa | 0 mm | - | 590 W/m² | - |
| 1777925081 | 25° C | 50% | 1017.1 hPa | 0 mm | - | 570 W/m² | - |
| 1777924777 | 25° C | 50% | 1017.2 hPa | 0 mm | - | 609 W/m² | - |
| 1777924473 | 24.44° C | 51% | 1017 hPa | 0 mm | - | 617 W/m² | - |
| 1777924170 | 25° C | 51% | 1017.2 hPa | 0 mm | - | 113 W/m² | - |
* Rain latest hour (hover to see other rain measurements)
** Current wind speed in m/s (hover to see current wind gust speed)